Location: Sternwarte ZA, Rosenfeld-Brittheim
(48.2889°N, 8.6789°E)
Time: 20:29:15
(UTC+02:00)

ISS - Pass Details

Date: 18 July 2019
Orbit: 409 x 418 km, 51.6° (Epoch: 20 July)

Event Time Altitude Azimuth Distance (km) Brightness Sun altitude
Rises 03:04:52 0° 291° (WNW) 2,349 0.0 -17.5°
Reaches altitude 10° 03:06:58 10° 293° (WNW) 1,484 -1.0 -17.4°
Maximum altitude 03:10:18 74° 19° (NNE) 431 -3.6 -17.2°
Drops below altitude 10° 03:13:36 10° 105° (ESE) 1,475 -0.9 -16.9°
Sets 03:15:41 0° 107° (ESE) 2,334 0.1 -16.8°
